Location: New Frontier Mobile Home Park
(32.8448°N, 116.9675°W)
Time: 23:14:25
(UTC+00:00)

CZ-2C R/B - Pass Details

Date: 14 July 2020
Orbit: 641 x 704 km, 98.4° (Epoch: 05 August)

Event Time Altitude Azimuth Distance (km) Brightness Sun altitude
Rises 04:10:01 0° 7° (N) 3,097 7.6 -13.7°
Reaches altitude 10° 04:12:19 10° 3° (N) 2,174 6.8 -14.1°
Maximum altitude 04:16:59 57° 286° (WNW) 825 4.5 -14.9°
Drops below altitude 10° 04:21:35 10° 208° (SSW) 2,142 6.2 -15.6°
Sets 04:23:50 0° 204° (SSW) 3,048 7.0 -16.0°
